Presure
167 171 196 263 176 285 296 356 342 343 327 315 294 290 283 281 289 332 351 282 280 263 256 256 250 248 245 240 238 223 208 212 197 196 203 193 201 199 190 207 192 207 197 202 197 206 206
137 214 237 252 259 188 322 308 334 322 330 310 319 293 287 282 278 289 327 343 281 265 268 269 262 259 235 247 231 235 227 207 193 199 200 202 196 199 194 194 190 180 183 189 191 190 196
201 159 219 241 251 296 317 342 333 310 314 302 294 320 294 281 278 281 293 319 321 277 259 268 238 260 249 256 250 231 227 226 216 209 204 201 201 197 194 196 195 195 196 198 191 202 186
198 211 235 249 262 267 303 317 331 328 307 299 289 286 303 300 284 276 278 299 315 305 275 258 254 240 256 260 251 244 227 228 226 218 221 215 212 206 207 201 211 220 205 215 216 234 224
209 225 226 144 283 328 343 327 346 344 333 297 275 282 287 258 304 283 268 244 300 304 321 272 263 257 258 251 258 247 230 222 215 221 215 214 212 212 207 209 209 207 215 206 214 222 229
224 225 235 243 288 352 330 330 345 338 302 281 294 287 272 272 264 285 278 264 281 293 312 313 295 267 252 250 250 257 253 223 223 228 217 220 213 214 222 198 202 208 212 212 200 206 212
207 202 240 269 300 291 329 351 348 319 300 622 584 565 561 563 272 259 266 275 259 293 301 290 297 306 279 259 239 241 260 246 215 223 217 219 218 209 214 216 208 203 204 211 205 212 207
149 142 237 266 343 341 325 351 346 307 540 472 509 504 533 569 474 276 259 265 273 273 273 280 284 286 291 290 286 269 243 249 228 225 222 212 206 214 210 214 215 207 204 211 211 200 214
218 210 232 248 295 324 355 353 309 562 501 479 452 446 471 536 492 290 267 261 261 248 281 289 283 272 277 272 269 274 265 254 240 220 222 220 218 221 219 216 217 215 208 202 210 209 212
201 221 232 294 295 325 351 349 306 486 490 424 440 448 437 489 498 395 270 255 248 249 271 282 272 272 263 262 258 267 252 255 239 229 222 222 224 224 224 225 224 218 217 213 211 206 212
216 225 239 248 291 339 358 335 487 544 446 446 449 431 436 457 478 462 288 254 250 254 270 283 278 278 262 255 252 256 247 254 231 243 230 233 237 238 242 237 231 231 227 216 214 214 220
216 221 243 289 371 363 358 316 515 452 425 455 443 427 443 473 493 495 292 256 251 254 281 272 280 263 262 266 254 248 243 263 264 246 252 241 239 235 236 236 233 228 222 218 220 225 229
197 122 249 290 368 364 358 308 496 422 437 431 414 413 430 465 501 435 290 258 247 264 270 270 273 270 272 263 257 257 252 250 245 234 230 226 220 218 217 220 222 222 223 248 249 260 262
170 127 272 279 281 365 352 312 443 423 423 426 413 452 439 472 463 322 292 263 252 263 263 270 271 264 265 255 249 237 236 224 226 214 221 231 273 264 262 263 260 257 256 252 256 248 242
203 217 309 292 278 344 346 428 438 431 419 409 429 466 447 482 505 312 284 264 255 257 246 230 262 252 254 244 231 232 215 223 207 235 275 270 263 256 251 247 247 247 248 245 247 164 168
216 257 334 297 367 344 341 424 437 432 432 441 458 470 471 471 339 307 288 266 246 232 253 269 258 253 248 234 227 232 229 214 283 278 264 250 248 244 243 246 250 243 230 232 225 220 217
217 265 325 309 367 362 337 412 446 438 444 451 465 429 474 500 323 305 294 262 249 243 251 268 258 250 239 230 227 232 220 219 282 271 179 167 244 243 227 211 201 220 219 209 213 220 229
223 310 294 309 348 359 331 412 449 482 438 474 426 446 487 330 310 308 286 256 251 246 231 266 253 247 234 235 229 222 215 213 210 201 214 220 213 215 206 216 215 214 208 214 224 276 264
255 282 299 300 336 348 331 396 448 450 406 422 447 480 374 140 311 306 287 251 245 243 227 266 254 244 232 228 220 225 220 213 211 213 217 218 218 216 216 210 195 217 229 263 264 263 251
210 303 291 300 313 322 332 291 443 399 413 424 456 376 341 339 323 321 273 253 249 252 224 264 251 249 229 229 227 222 219 216 213 212 212 211 216 211 210 208 216 247 251 249 249 243 245
291 318 280 292 310 300 332 290 403 390 441 490 379 376 331 316 330 306 278 256 221 233 224 261 252 246 242 228 226 222 223 221 218 216 215 216 209 214 212 217 243 259 239 234 228 246 240
298 281 287 301 305 308 330 291 405 385 449 415 371 362 361 330 323 300 293 255 250 229 148 227 253 253 239 236 233 224 225 227 227 220 218 216 216 216 215 257 228 239 228 229 246 247 251
292 272 292 298 311 292 323 295 396 372 402 358 381 354 337 349 312 304 290 240 243 243 233 230 240 247 233 242 238 232 225 216 212 234 228 216 219 215 195 157 243 228 227 228 230 229 247
269 294 289 299 334 306 326 301 332 368 379 356 345 325 347 327 332 315 300 253 239 235 231 228 218 228 237 240 244 222 225 219 222 221 214 211 216 249 198 235 229 220 220 223 219 236 251
259 296 284 286 337 338 324 302 271 347 353 348 335 339 346 308 320 331 317 277 251 244 237 232 229 224 228 240 244 226 209 225 219 213 218 220 259 243 188 217 226 218 217 225 229 224 236
288 294 289 270 298 305 323 303 274 366 353 338 322 326 318 336 338 336 347 347 343 254 241 237 232 222 224 230 235 222 223 223 222 219 220 234 246 240 247 226 219 216 209 222 227 221 238
278 285 278 292 308 319 320 302 279 354 341 338 350 328 321 309 304 309 311 314 317 337 252 244 230 223 222 219 221 226 225 223 220 219 169 254 242 160 213 216 215 219 218 212 221 211 224
286 269 296 293 326 329 320 300 278 368 350 340 334 320 308 303 304 299 298 304 315 311 332 249 247 232 215 219 228 220 216 225 225 184 237 237 247 212 239 241 223 215 221 229 214 219 212
278 272 296 299 325 336 322 301 275 383 333 311 320 316 315 312 294 300 311 307 312 306 315 309 252 240 232 229 228 226 224 223 229 227 245 251 203 239 158 222 230 221 214 226 214 221 217
Wind_Speed
108 110 75 97 73 85 77 44 43 42 40 41 45 44 42 40 37 37 50 72 75 75 81 90 89 87 89 86 88 89 88 92 90 88 89 94 90 91 89 87 94 80 96 83 92 84 85
75 93 96 101 99 82 66 67 45 47 44 42 43 48 48 43 43 38 38 50 79 77 78 88 88 87 84 85 87 88 86 89 86 89 88 90 87 87 90 87 95 99 91 94 95 93 92
89 102 87 100 103 90 77 52 51 53 48 43 42 49 51 51 47 44 39 41 54 81 77 80 77 86 86 84 86 88 86 85 88 90 91 92 91 90 87 90 88 88 89 88 90 87 93
84 96 99 104 103 93 80 69 51 50 51 47 44 44 49 53 53 51 47 41 45 65 82 78 79 79 81 83 84 87 84 84 85 83 84 89 89 89 88 88 91 87 90 87 81 78 74
86 101 101 63 108 90 80 74 62 52 46 46 52 52 52 45 55 56 51 45 45 50 57 84 84 78 75 79 79 86 84 82 82 83 81 83 84 83 83 85 85 83 81 83 77 74 67
103 105 108 111 110 86 87 85 73 67 55 53 58 63 67 60 50 56 56 53 51 50 50 54 77 83 76 75 77 75 85 83 82 81 80 82 80 79 82 81 81 78 76 77 77 76 71
92 92 114 120 109 107 93 85 83 72 70 25 25 19 18 33 66 52 57 60 52 47 43 51 55 58 85 79 80 78 74 83 80 80 78 79 77 80 79 79 79 79 78 77 79 75 72
72 66 116 120 105 97 96 90 86 80 40 50 28 20 17 20 46 64 59 60 52 45 53 54 52 51 54 59 70 77 75 75 79 79 78 77 79 79 80 80 81 80 79 76 75 76 71
105 96 115 120 113 100 96 95 89 33 35 29 30 25 15 16 40 75 63 58 53 57 51 49 50 50 49 54 57 60 67 71 78 76 78 76 78 79 80 80 82 83 78 75 76 72 73
90 110 116 116 115 104 99 95 92 42 24 34 21 14 15 17 36 61 65 58 56 54 51 49 50 52 54 53 56 57 65 65 73 78 76 77 80 78 79 82 82 81 79 77 75 72 75
107 114 122 122 115 104 99 95 52 18 31 24 15 19 16 14 31 49 75 62 58 58 54 50 49 47 52 55 55 60 63 65 70 75 74 75 74 74 78 79 77 80 80 78 77 77 79
108 114 123 116 102 101 100 95 47 36 29 10 6 5 10 11 22 46 76 66 63 62 52 45 47 48 51 52 56 56 55 54 62 63 62 61 61 64 66 69 72 73 74 76 78 80 78
91 58 124 115 104 102 99 94 19 39 16 6 10 10 5 11 29 62 76 69 65 53 44 45 45 46 48 49 49 45 46 48 49 51 53 56 61 63 65 66 68 70 73 69 72 72 70
92 62 117 114 114 100 99 95 43 36 22 15 10 11 7 9 40 82 78 72 57 45 44 45 46 44 44 44 43 44 46 48 48 49 51 53 46 47 50 48 50 53 55 62 61 65 65
102 112 107 108 112 104 97 56 37 29 25 19 16 7 4 21 38 79 70 64 52 47 44 41 47 43 43 45 46 45 49 46 45 43 39 39 39 40 39 40 42 47 49 56 58 47 49
112 118 103 104 102 101 95 52 32 27 24 18 11 5 13 34 81 79 68 63 47 45 46 47 49 46 46 48 45 42 41 39 33 34 33 33 32 34 37 37 37 36 43 47 46 47 54
115 117 99 99 99 96 93 57 27 26 17 11 14 16 18 28 78 74 69 59 50 48 46 48 48 47 47 44 41 37 37 38 27 29 35 36 27 31 25 27 35 34 42 42 47 55 61
116 98 103 98 101 94 91 54 29 18 17 12 14 13 22 76 73 71 63 57 53 46 40 48 47 46 41 42 39 39 38 37 35 37 29 25 27 23 27 28 31 36 39 46 54 30 37
108 103 97 94 103 93 87 53 17 16 11 14 8 12 72 15 72 69 60 57 48 42 39 47 47 46 43 41 40 38 37 35 33 28 24 23 23 24 27 28 39 40 37 22 17 19 32
84 96 95 90 98 92 84 78 13 24 7 9 11 69 71 76 74 68 60 54 47 44 38 45 45 45 42 41 40 37 35 34 30 26 23 23 23 24 27 30 36 25 17 12 15 22 23
96 93 94 87 93 82 82 75 18 19 6 10 39 56 54 51 62 58 61 49 35 36 38 43 44 44 45 41 37 34 34 31 27 25 23 23 22 28 28 30 24 2 7 12 22 22 23
92 92 89 84 86 79 77 74 14 18 17 47 43 49 62 52 56 57 56 44 43 35 5 35 40 41 39 38 38 34 32 30 28 26 25 24 27 29 28 9 21 7 8 14 22 26 30
88 89 85 83 84 74 73 72 10 13 27 15 40 40 44 47 51 55 51 40 44 42 39 39 38 39 37 38 37 35 30 27 24 25 24 23 25 26 24 21 8 5 7 11 10 23 26
81 87 81 86 84 71 67 67 40 7 18 20 17 18 35 33 48 47 49 50 43 41 42 41 38 36 37 37 36 31 31 27 25 24 20 21 25 13 16 9 10 7 4 9 7 26 26
77 85 77 78 83 65 64 64 57 17 3 16 18 22 24 23 28 37 44 48 52 48 48 45 42 38 35 34 34 33 26 27 23 20 23 25 17 13 11 10 13 5 3 7 15 20 28
81 83 77 73 78 69 61 61 56 4 7 8 9 18 15 20 25 26 26 29 34 55 53 51 47 39 38 36 36 34 29 25 24 24 25 18 12 11 8 15 13 8 6 11 12 21 23
76 79 71 77 79 69 58 57 57 13 7 11 17 22 24 22 21 20 22 23 28 28 55 58 49 41 38 33 33 34 30 27 24 25 18 22 16 19 16 15 13 10 5 5 9 11 17
79 71 82 72 76 61 54 55 53 18 15 19 16 22 23 23 21 21 24 23 24 30 29 58 58 46 30 32 38 29 23 26 25 22 21 19 23 18 12 12 11 10 6 3 5 5 6
76 72 79 72 75 57 52 52 50 20 14 11 15 18 19 21 23 20 18 19 19 26 27 35 57 49 43 40 37 35 29 24 26 25 23 25 18 16 16 15 13 13 10 7 4 5 6
Wind_Direction
339 340 351 351 347 346 345 318 313 302 294 274 273 267 259 252 258 257 245 233 231 229 227 227 229 229 229 229 230 232 230 229 232 235 237 236 240 240 242 243 243 245 244 245 249 250 248
339 345 347 351 352 341 341 340 319 317 301 298 270 265 257 252 248 252 249 240 228 228 228 227 227 229 228 228 229 229 232 230 232 234 236 239 238 241 241 243 240 243 247 245 245 251 252
343 340 347 350 351 342 343 325 318 320 307 301 292 271 257 255 248 245 246 240 235 227 228 228 226 229 230 229 227 228 228 232 231 233 235 238 239 241 243 244 245 245 246 247 245 249 251
340 341 350 349 349 346 342 336 320 306 305 298 291 280 270 251 248 244 239 238 235 229 228 230 227 224 230 230 227 227 228 229 231 233 235 236 237 240 241 244 246 247 249 250 251 253 251
342 349 344 345 345 343 338 335 324 318 303 294 292 281 268 261 246 241 243 240 230 229 227 230 229 228 227 230 229 225 225 227 229 231 233 238 238 239 240 242 244 246 249 247 250 252 254
349 349 349 348 343 340 340 337 328 325 316 303 288 273 272 262 253 239 236 237 231 225 221 223 229 229 225 225 228 228 226 226 228 230 231 237 239 241 244 239 243 246 248 249 247 247 247
346 335 348 345 340 343 341 332 329 328 321 313 310 304 279 229 249 243 237 231 234 223 218 221 221 224 231 226 221 222 227 224 226 228 229 233 237 239 242 244 244 244 245 246 247 248 248
346 341 347 344 344 341 341 333 332 332 312 310 311 315 314 270 217 232 234 233 229 221 215 215 216 218 220 225 230 226 222 223 225 229 230 231 233 238 239 241 243 243 245 248 248 247 252
346 343 346 345 341 343 337 335 338 313 314 309 308 302 318 315 206 221 221 228 223 227 219 214 210 216 211 218 220 224 223 223 223 228 231 233 237 239 240 241 243 243 244 247 249 251 254
339 345 345 342 342 345 337 338 340 319 308 317 297 297 283 290 211 205 212 220 222 225 219 213 209 211 215 218 219 219 222 223 223 226 231 234 236 239 241 242 243 244 246 249 252 253 256
343 345 344 343 342 343 339 343 327 284 323 304 282 277 269 243 209 191 207 212 218 219 216 209 206 209 212 214 216 219 222 224 226 228 232 236 239 241 242 243 245 247 248 250 253 256 259
343 345 343 342 342 341 342 346 328 334 331 302 301 312 313 254 200 185 202 207 213 216 210 207 200 207 210 212 217 222 224 228 229 231 233 233 235 238 239 242 243 246 249 252 255 257 260
337 345 342 343 345 343 344 347 339 340 339 356 309 284 249 233 184 183 198 203 213 209 204 201 197 203 207 210 214 216 216 219 219 221 226 228 234 238 241 243 246 248 252 256 257 260 264
338 345 342 343 344 346 347 349 341 344 345 343 314 316 262 203 172 182 196 199 207 201 203 198 195 197 197 200 204 207 211 215 219 221 230 237 235 239 243 246 248 252 256 260 263 261 259
339 341 343 344 345 349 350 347 344 347 346 344 326 324 186 169 182 184 196 196 201 197 200 201 194 196 197 194 201 207 213 218 222 231 229 231 234 238 244 248 252 256 259 263 265 256 258
338 339 348 343 347 350 352 354 351 346 338 336 350 101 150 166 166 185 192 192 193 190 199 194 195 193 194 198 203 207 212 215 224 225 227 230 232 236 242 250 258 264 263 267 271 269 270
337 339 351 346 348 349 354 354 352 348 359 21 89 120 159 168 174 185 190 188 193 195 197 191 194 194 196 199 203 204 208 214 220 224 227 231 230 242 240 243 246 264 267 271 277 280 281
336 346 343 350 352 350 356 351 356 357 39 77 130 149 168 165 179 183 186 186 195 194 193 191 196 196 197 198 201 204 206 211 216 225 224 228 237 248 245 260 267 274 273 280 287 285 294
336 342 346 350 352 352 357 354 27 64 27 52 155 169 151 318 179 185 182 187 189 188 189 190 196 198 197 198 201 205 207 211 216 222 227 236 247 255 265 266 257 284 287 291 294 302 309
340 343 342 352 354 355 356 359 24 13 78 43 144 155 169 171 182 184 179 190 189 191 189 190 197 199 199 200 204 207 210 214 218 224 232 242 256 262 270 276 286 282 280 300 322 312 331
340 345 341 347 352 355 354 360 27 19 66 113 141 155 177 179 182 181 184 190 190 189 188 190 196 201 204 204 206 208 212 216 222 229 240 250 256 268 273 286 277 263 308 315 306 348 330
341 339 342 349 352 354 353 359 53 43 101 143 153 159 174 181 184 187 191 187 191 188 203 196 197 199 206 207 209 212 216 220 227 233 242 251 263 275 286 267 280 287 266 25 6 7 9
343 339 345 349 354 353 353 357 24 34 136 122 156 164 171 172 187 189 192 185 193 194 194 196 197 200 205 210 212 216 220 222 225 235 243 259 271 280 279 254 166 139 80 38 36 24 12
338 346 346 350 350 352 351 355 355 16 135 157 163 159 183 189 190 194 198 186 198 194 196 200 202 203 205 210 214 217 223 225 233 239 252 262 273 235 256 179 152 193 98 52 300 33 19
335 347 344 346 348 348 349 351 355 347 139 141 154 171 188 183 194 200 205 195 196 200 201 204 203 207 209 208 208 219 211 227 236 246 259 268 194 227 237 186 173 183 203 43 66 54 40
340 347 347 345 348 350 345 348 353 249 199 189 193 172 168 161 185 204 212 219 224 201 203 204 204 205 209 211 211 220 224 228 236 247 257 251 217 233 214 191 195 186 223 60 46 59 39
339 346 343 347 346 344 342 346 347 315 253 220 194 177 167 169 172 173 182 195 207 205 202 204 206 208 207 208 215 223 225 227 235 246 224 195 233 241 208 214 214 168 146 129 53 109 76
338 340 346 346 345 340 338 340 343 245 249 222 194 175 182 177 178 180 185 186 190 189 193 206 205 209 207 212 216 220 221 230 235 225 253 246 220 222 237 220 182 206 178 249 138 70 106
335 338 343 343 344 338 334 336 340 229 224 219 224 198 184 174 172 173 168 173 178 186 189 190 207 208 212 215 217 224 230 231 237 243 234 215 215 208 209 189 241 211 220 221 193 183 123